Location: Sundre
(51.7972°N, 114.6405°W)
Time: 17:04:58
(UTC-07:00)

Envisat - Visible Passes

Search period start: 20 November 2019 00:00
Search period end: 30 November 2019 00:00
Orbit: 764 x 766 km, 98.1° (Epoch: 20 November)

Date Brightness Start Highest point End Pass type
(mag) Time Alt. Az. Time Alt. Az. Time Alt. Az.
20 Nov 5.3 06:43:44 10° NE 06:48:06 28° E 06:52:26 10° SSE visible
20 Nov 3.0 18:03:26 10° SSE 18:08:25 62° ENE 18:13:28 10° N visible
20 Nov 5.3 19:43:55 10° SW 19:47:52 23° W 19:51:52 10° NW visible
21 Nov 6.1 06:08:07 10° NE 06:10:52 14° E 06:13:36 10° ESE visible
21 Nov 3.6 17:27:21 10° SE 17:31:51 33° ENE 17:36:23 10° N visible
21 Nov 4.2 19:05:58 10° S 19:10:47 43° W 19:15:39 10° NNW visible
22 Nov 4.4 07:08:55 10° NNE 07:13:48 44° E 07:18:38 10° S visible
22 Nov 3.0 18:28:49 10° SSE 18:33:54 84° WSW 18:39:01 10° NNW visible
22 Nov 6.0 20:11:05 10° WSW 20:13:43 14° W 20:16:23 10° NW visible
23 Nov 5.6 06:32:41 10° NE 06:36:42 23° E 06:40:43 10° SE visible
23 Nov 3.1 17:52:18 10° SE 17:57:11 51° ENE 18:02:07 10° N visible
23 Nov 5.0 19:32:11 10° SSW 19:36:29 27° W 19:40:49 10° NW visible
24 Nov 6.2 05:57:39 10° ENE 05:59:25 12° E 06:01:10 10° ESE visible
24 Nov 3.8 17:16:24 10° ESE 17:20:40 28° ENE 17:24:58 10° N visible
24 Nov 3.8 18:54:30 10° S 18:59:27 53° W 19:04:27 10° NNW visible
25 Nov 4.7 06:57:44 10° NNE 07:02:26 36° E 07:07:07 10° SSE visible
25 Nov 2.9 18:17:33 10° SSE 18:22:37 81° ENE 18:27:43 10° NNW visible
25 Nov 5.7 19:58:58 10° SW 20:02:17 17° W 20:05:37 10° NW visible
26 Nov 5.9 06:21:41 10° NE 06:25:18 19° E 06:28:53 10° SE visible
26 Nov 3.3 17:41:13 10° SE 17:45:58 42° ENE 17:50:46 10° N visible
26 Nov 4.7 19:20:33 10° SSW 19:25:07 33° W 19:29:42 10° NNW visible
27 Nov 3.8 07:23:02 10° NNE 07:28:05 59° E 07:33:05 10° S visible
27 Nov 4.0 17:05:31 10° ESE 17:09:31 24° ENE 17:13:31 10° N visible
27 Nov 3.4 18:43:06 10° S 18:48:08 65° WSW 18:53:13 10° NNW visible
27 Nov 6.2 20:27:25 10° W 20:28:12 10° W 20:28:59 10° WNW visible
28 Nov 5.1 06:46:36 10° NNE 06:51:05 30° E 06:55:31 10° SSE visible
28 Nov 2.9 18:06:20 10° SSE 18:11:22 67° ENE 18:16:25 10° N visible
28 Nov 5.4 19:47:04 10° SW 19:50:52 21° W 19:54:42 10° NW visible
29 Nov 6.0 06:10:51 10° NE 06:13:52 16° E 06:16:53 10° ESE visible
29 Nov 3.5 17:30:11 10° SE 17:34:46 36° ENE 17:39:22 10° N visible
29 Nov 4.3 19:09:00 10° SSW 19:13:45 40° W 19:18:33 10° NNW visible
